Location: Asheville, NC
(35.6000°N, 82.5500°W)
Time: 08:03:35
(UTC-04:00)

N. Korean satellite - Pass Details

Date: 07 October 2017
Orbit: 459 x 517 km, 97.2° (Epoch: 22 October)

Event Time Altitude Azimuth Distance (km) Brightness Sun altitude
Rises 20:31:43 0° 204° (SSW) 2,582 10.5 -18.4°
Reaches altitude 10° 20:34:29 10° 227° (SW) 1,693 9.8 -19.0°
Maximum altitude 20:36:44 16° 266° (W) 1,371 9.9 -19.4°
Drops below altitude 10° 20:38:59 10° 304° (NW) 1,680 10.2 -19.9°
Sets 20:41:42 0° 327° (NNW) 2,553 10.8 -20.4°
